#timestamp,LO_Frequency,Hit,StdDev 
1676512815.9,286047000.9,N
1676512835.7,286046999.5,N
1676512855.6,286046996.5,N
1676512875.4,286047001.0,N
1676512895.3,286047002.1,N
1676512915.1,286046999.0,N
1676512916.0,286046999.0,N
1676512935.8,286046998.1,N
1676512955.7,286046998.1,N
1676512975.5,286046999.3,N
1676512995.4,286046998.7,N
1676513015.2,286046995.3,N
1676513035.0,286046994.9,N
1676513035.9,286046994.9,N
1676513055.8,286046999.5,N
1676513075.6,286046999.2,N
1676513095.4,286046999.0,N
1676513115.3,286047002.6,N
1676513135.1,286047000.0,N
1676513155.9,286047001.4,N
1676513175.7,286047003.6,N
1676513195.5,286047004.0,N
1676513215.4,286047000.0,N
1676513235.2,286047002.5,N
1676513255.0,286047000.6,N
1676513255.9,286047000.6,N
1676513275.8,286046998.1,N
1676513295.6,286046999.6,N
1676513315.5,286046998.1,N
1676513335.3,286047000.2,N
1676513355.1,286047000.5,N
1676513375.9,286046998.2,N
1676513395.7,286046995.6,N
1676513415.5,286046996.7,N
1676513435.4,286046998.5,N
1676513455.2,286046996.5,N
1676513475.0,286046997.9,N
1676513476.0,286046997.9,N
1676513495.8,286046997.0,N
1676513515.6,286046998.8,N
1676513535.5,286046999.5,N
1676513555.3,286046999.0,N
1676513575.2,286047003.2,N
1676513595.9,286047003.9,N
1676513615.7,286047001.9,N
1676513635.6,286047003.8,N
1676513655.4,286047003.9,N
1676513675.3,286047004.1,N
1676513695.1,286047001.8,N
1676513696.0,286047001.8,N
1676513715.8,286047003.1,N
1676513735.7,286047003.1,N
1676513755.5,286047002.3,N
1676513775.3,286046999.5,N
1676513795.2,286046996.9,N
1676513815.0,286046999.3,N
1676513815.9,286046999.3,N
1676513835.8,286046998.8,N
1676513855.6,286046996.8,N
1676513875.4,286046997.4,N
1676513895.3,286046998.3,N
1676513915.1,286047001.0,N
1676513935.9,286046998.6,N
1676513955.7,286046999.1,N
1676513975.5,286047000.7,N
1676513995.4,286047000.9,N
1676514015.2,286047002.4,N
1676514035.0,286046998.8,N
1676514035.9,286046998.8,N
1676514055.8,286046997.3,N
1676514075.6,286046997.9,N
1676514095.5,286046996.9,N
1676514115.3,286046996.7,N
1676514135.1,286046998.1,N
1676514155.9,286046996.7,N
1676514175.7,286046995.3,N
1676514195.5,286046995.8,N
1676514215.4,286046999.1,N
1676514235.2,286046997.4,N
1676514255.1,286046995.0,N
1676514256.0,286046995.0,N
1676514275.8,286046999.2,N
1676514295.6,286047000.7,N
1676514315.5,286047001.2,N
1676514335.3,286046998.8,N
1676514355.1,286046997.2,N
1676514375.9,286046999.5,N
1676514395.7,286046997.1,N
1676514415.6,286047001.0,N
1676514435.4,286046998.3,N
1676514455.2,286047000.8,N
1676514475.1,286047002.4,N
1676514476.0,286047002.4,N
1676514495.8,286047000.2,N
1676514515.7,286047000.8,N
1676514535.5,286046998.8,N
1676514555.3,286046999.5,N
1676514575.2,286047001.2,N
1676514595.0,286047000.8,N
1676514595.9,286047000.8,N
1676514615.8,286046999.4,N
1676514635.6,286046998.8,N
1676514655.4,286046999.6,N
1676514675.3,286046999.6,N
1676514695.1,286046997.3,N
1676514715.9,286047000.3,N
1676514735.7,286047000.8,N
1676514755.5,286046999.5,N
1676514775.4,286046999.5,N
1676514795.2,286046999.5,N
1676514815.0,286047000.6,N
1676514815.9,286047000.6,N
1676514835.8,286047000.7,N
1676514855.6,286047000.6,N
1676514875.5,286046998.3,N
1676514895.3,286047000.0,N
1676514915.1,286047000.0,N
1676514935.9,286046998.7,N
1676514955.7,286046995.1,Y
1676514975.6,286046997.0,P
1676514995.4,286046998.4,N
1676515015.2,286046998.7,N
1676515035.1,286047000.3,N
1676515036.0,286047000.3,N
1676515055.8,286046998.2,N
1676515075.6,286047000.8,N
1676515095.5,286046998.4,N
1676515115.3,286046997.6,N
1676515135.2,286046998.0,N
1676515155.9,286046997.8,N
1676515175.7,286046995.7,Y
1676515195.6,286046997.8,P
1676515215.4,286046999.0,N
1676515235.2,286046998.5,N
1676515255.1,286047002.8,Y
1676515256.0,286047002.8,P
1676515275.8,286047001.7,N
1676515295.7,286047003.9,N
1676515315.5,286047003.1,N
1676515335.3,286047004.0,N
1676515355.2,286047000.1,N
1676515375.0,286047000.3,N
1676515375.9,286047000.3,N
1676515395.8,286046998.2,N
1676515415.6,286047004.1,N
1676515435.4,286047002.5,N
1676515455.3,286047001.7,N
1676515475.1,286047002.2,N
1676515495.8,286047001.7,N
1676515515.7,286047001.8,N
1676515535.5,286047002.0,N
1676515555.4,286047004.1,N
1676515575.2,286046999.8,N
1676515595.0,286047000.4,N
1676515595.9,286047000.4,N
1676515615.8,286046999.7,N
1676515635.6,286047002.8,N
1676515655.5,286047001.9,N
1676515675.3,286047001.9,N
1676515695.1,286047004.4,N
1676515715.9,286047005.0,N
1676515735.7,286047003.5,N
1676515755.6,286047011.9,Y
1676515775.4,286047001.5,P
1676515795.2,286047002.5,P
1676515815.1,286046998.9,N
1676515816.0,286046998.9,N
1676515835.8,286046997.0,N
1676515855.6,286046996.7,N
1676515875.5,286046998.3,N
1676515895.3,286046998.2,N
1676515915.2,286046998.8,N
1676515935.9,286046999.3,N
1676515955.7,286046999.4,N
1676515975.6,286047000.6,N
1676515995.4,286046999.9,N
1676516015.2,286046998.9,N
1676516035.1,286046998.4,N
1676516036.0,286046998.4,N
1676516055.8,286046999.2,N
1676516075.7,286046997.8,N
1676516095.5,286046998.8,N
1676516115.3,286046994.9,Y
1676516135.2,286046999.0,P
1676516155.0,286046999.1,P
1676516155.9,286046999.1,P
1676516175.8,286046998.9,Y
1676516195.6,286047000.2,P
1676516215.4,286046998.8,N
1676516235.3,286046996.2,P
1676516255.1,286046993.9,Y
1676516275.9,286046998.7,P
1676516295.7,286046999.0,P
1676516315.5,286046998.3,P
1676516335.4,286047000.8,Y
1676516355.2,286047001.8,P
1676516375.0,286047001.7,N
1676516375.9,286047001.7,N
1676516395.8,286047003.3,N
